Regional Weather Roundup
Issued by NWS Charleston, WV

Home | Current Version | Previous Version | Text Only | Print | Product List | Glossary On
Versions: 1 2 3 4 5 6 7 8 9 10 11 12 13 14 15 16 17 18 19 20 21 22 23 24 25 26 27 28 29 30 31 32 33 34 35 36 37 38 39 40 41 42 43 44 45 46 47 48 49 50
000
ASUS41 KRLX 021110
RWRRLX
West Virginia Regional Weather Roundup
National Weather Service Charleston WV
700 AM EDT WED SEP 02 2015

Note: "fair" indicates few or no clouds below 12,000 feet with no
significant weather and/or obstructions to visibility.

WVZ003-021200-
Northern Panhandle of West Virginia

CITY           SKY/WX    TMP DP  RH WIND       PRES   REMARKS
WHEELING       CLOUDY    69  66  90 S3        30.12R FOG
$$

WVZ009-021200-
Northwest West Virginia

CITY           SKY/WX    TMP DP  RH WIND       PRES   REMARKS
PARKERSBURG    PTCLDY    68  66  93 CALM      30.14R FOG
$$

WVZ006-021200-
Western West Virginia

CITY           SKY/WX    TMP DP  RH WIND       PRES   REMARKS
HUNTINGTON     MOCLDY    65  65 100 CALM      30.12S FOG
$$

WVZ015-021200-
West Central West Virginia

CITY           SKY/WX    TMP DP  RH WIND       PRES   REMARKS
CHARLESTON     PTCLDY    65  64  97 CALM      30.13R FOG
$$

WVZ022-031-021200-
North Central West Virginia

CITY           SKY/WX    TMP DP  RH WIND       PRES   REMARKS
CLARKSBURG     MOCLDY    66  65  96 S3        30.13R FOG
MORGANTOWN     PTCLDY    70  64  81 CALM      30.14R
$$

WVZ025-035-042-045-021200-
Southern West Virginia

CITY           SKY/WX    TMP DP  RH WIND       PRES   REMARKS
BECKLEY        PTCLDY    64  61  90 CALM      30.21R FOG
LOGAN          FOG       66  66 100 CALM      30.16S VSB 3/4
BLUEFIELD      CLEAR     67  61  81 CALM      30.23R
LEWISBURG      FOG       62  61  94 CALM      30.21R VSB<1/4
$$

WVZ047-021200-
Northern Mountains of West Virginia

CITY           SKY/WX    TMP DP  RH WIND       PRES   REMARKS
ELKINS         MOCLDY    64  61  90 CALM      30.19R FOG
$$

WVZ052-021200-
Eastern Panhandle of West Virginia

CITY           SKY/WX    TMP DP  RH WIND       PRES   REMARKS
MARTINSBURG    MOCLDY    66  64  93 MISG      30.08R FOG
PETERSBURG     MOCLDY    67  66  97 CALM      30.13R FOG
$$



USA.gov is the U.S. government's official web portal to all federal, state and local government web resources and services.